Regional Weather Roundup
Issued by NWS Boston, MA

Current Version | Previous Version | Text Only | Print | Product List | Glossary Off
Versions: 1 2 3 4 5 6 7 8 9 10 11 12 13 14 15 16 17 18 19 20 21 22 23 24 25 26 27 28 29 30 31 32 33 34 35 36 37 38 39 40 41 42 43 44 45 46 47 48 49 50
000 ASUS41 KBOX 221510 RWRBOX REGIONAL WEATHER ROUNDUP NATIONAL WEATHER SERVICE BOSTON/NORTON MA 1100 AM EDT MON OCT 22 2018 NOTE: "FAIR" INDICATES FEW OR NO CLOUDS BELOW 12,000 FEET WITH NO SIGNIFICANT WEATHER AND/OR OBSTRUCTIONS TO VISIBILITY. MAZALL-221600- EASTERN MASSACHUSETTS CITY SKY/WX TMP DP RH WIND PRES REMARKS BOSTON FAIR 46 24 42 W13 30.18F BEVERLY FAIR 44 23 43 W10 30.16F LAWRENCE FAIR 45 23 42 W13 30.18F BEDFORD FAIR 46 26 45 W9 30.17F BLUE HILL N/A 42 27 55 W10G20 30.15F NORWOOD FAIR 47 28 47 W8 30.18F MARSHFIELD FAIR 45 27 49 VRB6G14 30.18F PLYMOUTH FAIR 47 25 42 W12 30.20F TAUNTON FAIR 45 29 53 W8 30.20F NEW BEDFORD FAIR 46 29 51 W13 30.20F $$ MAZALL-221600- CAPE COD AND THE ISLANDS CITY SKY/WX TMP DP RH WIND PRES REMARKS FALMOUTH FAIR 45 25 45 W13G20 30.21F HYANNIS FAIR 46 27 47 W10 30.19F CHATHAM FAIR 44 24 45 VRB7G18 30.21F PROVINCETOWN FAIR 44 25 47 W12 30.20S NANTUCKET FAIR 46 26 45 W12G21 30.22F MARTHAS VNYRD FAIR 46 28 49 W9 30.22S $$ MAZALL-221600- CENTRAL AND WESTERN MASSACHUSETTS CITY SKY/WX TMP DP RH WIND PRES REMARKS WORCESTER FAIR 41 27 57 W13 30.15S FITCHBURG FAIR 44 26 49 NW8 30.17F ORANGE FAIR 44 25 47 W10 30.18S SPRINGFIELD MOSUNNY 44 29 55 SW8 30.18F WESTFIELD FAIR 43 31 62 SW7 30.19F NORTH ADAMS CLOUDY 43 31 62 W13 30.17S PITTSFIELD CLOUDY 41 30 65 VRB6 30.15S $$ RIZALL-221600- RHODE ISLAND CITY SKY/WX TMP DP RH WIND PRES REMARKS PROVIDENCE FAIR 46 29 51 W12 30.22F NEWPORT FAIR 47 31 53 NW7 30.21F BLOCK ISLAND PTSUNNY 48 29 47 NW10 30.23S SMITHFIELD FAIR 44 27 51 W7G16 30.19F WESTERLY PTSUNNY 49 28 44 VRB3 30.23F $$ CTZALL-221600- CONNECTICUT CITY SKY/WX TMP DP RH WIND PRES REMARKS BRADLEY INTL PTSUNNY 44 30 57 SW7 30.21S HARTFORD CLOUDY 42 30 62 SW5 30.22F BRIDGEPORT CLOUDY 47 32 56 W13 30.24S DANBURY CLOUDY 42 33 70 W9 30.23S GROTON PTSUNNY 47 28 47 W9 30.22F NEW HAVEN CLOUDY 46 33 60 W8 30.23F CHESTER FAIR 46 28 49 NW7 30.21F MERIDEN CLOUDY 42 31 64 CALM 30.23S WILLIMANTIC PTSUNNY 45 32 60 SW9 30.22S OXFORD PTSUNNY 40 31 70 W5 30.21F $$ MEZ002-015-021-024-NHZ003-005-008-011-012-014-VTZ005-008-221600- NORTHERN NEW ENGLAND CITY SKY/WX TMP DP RH WIND PRES REMARKS PORTLAND ME FAIR 42 21 43 NW14 30.13F BANGOR ME PTSUNNY 39 18 42 W9G18 30.07F CONCORD NH FAIR 42 20 41 NW13 30.16S MANCHESTER NH FAIR 43 20 39 NW7 30.15S NASHUA NH FAIR 41 23 48 CALM 30.17F PORTSMOUTH NH MOSUNNY 43 17 35 W12G20 30.13F JAFFREY NH FAIR 41 24 51 W10G16 30.14S KEENE NH FAIR 43 27 53 SW9 30.16S BURLINGTON VT PTSUNNY 40 21 46 VRB3 30.14S MT. WASHINGTON NOT AVBL $$ NYZ052-076-221600- EASTERN NEW YORK CITY SKY/WX TMP DP RH WIND PRES REMARKS ALBANY PTSUNNY 44 32 62 S5 30.19F NEW YORK CITY PTSUNNY 50 31 48 SW12 30.25F $$ ANZALL-221600- MARINE OBSERVATIONS STATION/POSITION TIME TEMP WIND PRES VSBY WAVE AIR SEA DIR/SP/G HT/PER (UTC) (F) (DEG/KT/KT) (MB) (MI) (FT/S) BOSTON BUOY 1450 42 56 250/ 12/ 17 1021.4S 2/11 BUZZARDS BAY 1400 43 270/ 13/ 16 1024.0R NANTUCKET SOUND 1450 44 58 280/ 12/ 17 1023.1F 1/ 3 MASS BAY-STELLWA 1404 40 55 310/ 14/ 21 1020.8S 1 7/8 2/ 3 ISLE OF SHOALS 1400 39 290/ 17/ 21 1020.8R S OF BLOCK IS 1443 62 N/A 3/ 4 $$ ......................KEY......................... SKY/WX - SKY CONDITION/PRESENT WEATHER TMP - TEMPERATURE IN FAHRENHEIT DWPT - DEWPOINT IN FAHRENHEIT RH - RELATIVE HUMIDITY IN PERCENT WIND - DIRECTION AND SPEED IN MPH PRES - MEAN SEA LEVEL PRESSURE IN INCHES OF HG WCI - WIND CHILL INDEX VSB - VISIBILITY IN MILES HX - HEAT INDEX TC - TEMPERATURE IN CELSIUS VRB - VARIABLE WIND DIRECTION N/A - NOT AVAILABLE

USA.gov is the U.S. government's official web portal to all federal, state and local government web resources and services.